Location: Chuathbaluk
(61.5726°N, 159.2454°W)
Time: 15:16:26
(UTC+00:00)

S-56A Canister/Altair - Pass Details

Date: 30 November 2020
Orbit: 633 x 2499 km, 38.9° (Epoch: 15 January)

Event Time Altitude Azimuth Distance (km) Brightness Sun altitude
Rises 07:06:20 0° 226° (SW) 5,233 12.0 -37.6°
Reaches altitude 10° 07:12:20 10° 205° (SSW) 3,783 11.0 -38.3°
Enters shadow 07:12:59 11° 202° (SSW) 3,657 10.9 -38.3°
Maximum altitude 07:16:22 13° 180° (S) 3,180 - -38.7°
Drops below altitude 10° 07:19:51 10° 153° (SSE) 3,150 - -39.1°
Sets 07:23:56 0° 127° (SE) 3,756 - -39.5°
